Weather History for Yuma MCAS, AZ

Change the Weather History Date:

Friday, January 11, 2013

  Actual Average Record
Temperature  
Mean Temperature 48 °F 58 °F  
Max Temperature 56 °F 69 °F 88 °F (2015)
Min Temperature 40 °F 47 °F 26 °F (1913)
Degree Days  
Heating Degree Days 17 7  
Month to date heating degree days 124 81  
Since 1 July heating degree days 361 385  
Moisture  
Dew Point 20 °F    
Average Humidity 36    
Maximum Humidity 55    
Minimum Humidity 16    
Precipitation  
Precipitation 0.00 in 0.01 in 0.44 in (1960)
Month to date precipitation 0.00 0.16  
Year to date precipitation 0.00 0.16  
Sea Level Pressure  
Sea Level Pressure 30.07 in    
Wind  
Wind Speed 5 mph (West)    
Max Wind Speed 15 mph    
Max Gust Speed 20 mph    
Visibility 10 miles    
Events      
T = Trace of Precipitation, MM = Missing Value Source: NWS Daily Summary

Daily Weather History Graph

Daily Weather History Graph

Search for Another Location

Airport:

Trip Planner

Search our weather history database for the weather conditions in past years. The results will help you decide how hot, cold, wet, or windy it might be!

Date:

Astronomy

Jan. 11, 2013 Rise Set
Actual Time 7:41 AM MST 5:52 PM MST
Civil Twilight 7:14 AM MST 6:18 PM MST
Nautical Twilight 6:44 AM MST 6:49 PM MST
Astronomical Twilight 6:14 AM MST 7:19 PM MST
Moon 7:20 AM MST (1/11) 6:11 PM MST (1/11)
Length of Visible Light 11h 04m
Length of Day
10h 10m
Waning Crescent, 0% of the Moon is Illuminated
Jan 11
Waning Crescent
Jan 11
New
Jan 18
First Quarter
Jan 26
Full
Feb 3
Last Quarter

Hourly Weather History & Observations

Time (MST) Temp. Windchill Dew Point Humidity Pressure Visibility Wind Dir Wind Speed Gust Speed Precip Events Conditions
12:55 AM 46.0 °F 41.9 °F 30.0 °F 54% 30.01 in 10.0 mi WSW 8.1 mph - N/A   Partly Cloudy
1:55 AM 46.0 °F 44.8 °F 30.0 °F 54% 30.03 in 10.0 mi West 3.5 mph - N/A   Partly Cloudy
2:55 AM 45.0 °F 41.8 °F 28.9 °F 53% 30.05 in 10.0 mi ENE 5.8 mph - N/A   Partly Cloudy
3:55 AM 46.0 °F 41.9 °F 21.9 °F 39% 30.06 in 10.0 mi WNW 8.1 mph - N/A   Partly Cloudy
4:55 AM 44.1 °F 39.5 °F 21.0 °F 40% 30.06 in 10.0 mi WNW 8.1 mph - N/A   Clear
5:00 AM - - - N/A% - - North - - N/A   Unknown
5:55 AM 43.0 °F 40.3 °F 19.9 °F 40% 30.08 in 10.0 mi NW 4.6 mph - N/A   Clear
6:55 AM 41.0 °F 38.0 °F 21.0 °F 45% 30.10 in 10.0 mi NW 4.6 mph - N/A   Clear
7:55 AM 41.0 °F - 21.9 °F 47% 30.12 in 10.0 mi Calm Calm - N/A   Clear
8:55 AM 39.9 °F 36.7 °F 25.0 °F 55% 30.14 in 10.0 mi SSW 4.6 mph - N/A   Clear
9:55 AM 46.9 °F - 23.0 °F 39% 30.16 in 10.0 mi Calm Calm - N/A   Clear
10:55 AM 53.1 °F - 18.0 °F 25% 30.15 in 10.0 mi Variable 6.9 mph - N/A   Clear
11:55 AM 54.0 °F - 15.1 °F 22% 30.13 in 10.0 mi North 8.1 mph - N/A   Clear
12:55 PM 55.9 °F - 14.0 °F 19% 30.09 in 10.0 mi Variable 4.6 mph - N/A   Clear
1:55 PM 55.0 °F - 15.1 °F 21% 30.06 in 10.0 mi West 8.1 mph - N/A   Partly Cloudy
2:55 PM 55.0 °F - 14.0 °F 20% 30.05 in 10.0 mi Variable 4.6 mph - N/A   Partly Cloudy
3:55 PM 55.9 °F - 12.0 °F 18% 30.05 in 10.0 mi West 9.2 mph - N/A   Partly Cloudy
4:55 PM 55.0 °F - 10.0 °F 17% 30.04 in 10.0 mi West 6.9 mph - N/A   Partly Cloudy
5:55 PM 53.1 °F - 12.0 °F 20% 30.03 in 10.0 mi Calm Calm - N/A   Partly Cloudy
6:55 PM 50.0 °F - 16.0 °F 26% 30.03 in 10.0 mi WSW 3.5 mph - N/A   Partly Cloudy
7:55 PM 46.9 °F - 21.0 °F 36% 30.03 in 10.0 mi Calm Calm - N/A   Partly Cloudy
8:55 PM 46.0 °F - 19.9 °F 35% 30.03 in 10.0 mi Calm Calm - N/A   Clear
9:55 PM 43.0 °F - 21.9 °F 43% 30.05 in 10.0 mi Calm Calm - N/A   Clear
10:55 PM 41.0 °F 39.0 °F 21.0 °F 45% 30.06 in 10.0 mi West 3.5 mph - N/A   Clear
11:55 PM 43.0 °F 40.3 °F 19.9 °F 40% 30.05 in 10.0 mi West 4.6 mph - N/A   Clear